SCP
2 3 3 3 3 3 1 1 0 0 0 0 0 0 0 0 0 0 0 0 0 0 0 0 0 0 0 0 0 0 0 0 0 0 0 0 0 0 0 0 0 0 0
2 2 2 2 3 2 1 0 0 0 0 0 0 0 0 0 0 0 0 0 0 0 0 0 0 0 0 0 0 0 0 0 0 0 0 0 0 0 0 0 0 0 0
1 2 2 2 2 2 0 0 0 0 0 0 0 0 0 0 0 0 0 0 0 0 0 0 0 0 0 0 0 0 0 0 0 0 0 0 0 0 0 0 0 0 0
1 1 2 1 1 0 0 0 0 0 0 0 0 0 0 0 0 0 0 0 0 0 0 0 0 0 0 0 0 0 0 0 0 0 0 0 0 0 0 0 0 0 0
1 1 1 1 0 0 0 0 0 0 0 0 0 0 0 0 0 0 0 0 0 0 0 0 0 0 0 0 0 0 0 0 0 0 0 0 0 0 0 0 0 0 0
1 1 1 0 0 0 0 0 0 0 0 0 0 0 0 0 0 0 0 0 0 0 0 0 0 0 0 0 0 0 0 0 0 0 0 0 0 0 0 0 0 0 0
1 1 0 0 0 0 0 0 0 0 0 0 0 0 0 0 0 0 0 0 0 0 0 0 0 0 0 0 0 0 0 0 0 0 0 0 0 0 0 0 0 0 0
1 1 0 0 0 0 0 0 0 0 0 0 0 0 0 0 0 0 0 0 0 0 0 0 0 0 0 0 0 0 0 0 0 0 0 0 0 0 0 0 0 0 0
0 0 0 0 0 0 0 0 0 0 0 0 0 0 0 0 0 0 0 0 0 0 0 0 0 0 0 0 0 0 0 0 0 0 0 0 0 0 0 0 0 0 0
0 0 0 0 0 0 0 0 0 0 0 0 0 0 0 0 0 0 0 0 0 0 0 0 0 0 0 0 0 0 0 0 0 0 0 0 0 0 0 0 0 0 0
0 0 0 0 0 0 0 0 0 0 0 0 0 0 0 0 0 0 0 0 0 0 0 0 0 0 0 0 0 0 0 0 0 0 0 0 0 0 0 0 0 0 0
0 0 0 0 0 0 0 0 0 0 0 0 0 0 0 0 0 0 0 0 0 0 0 0 0 0 0 0 0 0 0 0 0 0 0 0 0 0 0 0 0 0 0
0 0 0 0 0 0 0 0 0 0 0 0 0 0 0 0 0 0 0 0 0 0 0 0 0 0 0 0 0 0 0 0 0 0 0 0 0 0 0 0 0 0 0
0 0 0 0 0 0 0 0 0 0 0 0 0 0 0 0 0 0 0 0 0 0 0 0 0 0 0 0 0 0 0 0 0 0 0 0 0 0 0 0 0 0 0
0 0 0 0 0 0 0 0 0 0 0 0 0 0 0 0 0 0 0 0 0 0 0 0 0 0 0 0 0 0 0 0 0 0 0 0 0 0 0 0 0 0 0
0 0 0 0 0 0 0 0 0 0 0 0 0 0 0 0 0 0 0 0 0 0 0 0 0 0 0 0 0 0 0 0 0 0 0 0 0 0 0 0 0 0 0
0 0 0 0 0 0 0 0 0 0 0 0 0 0 0 0 0 0 0 0 0 0 0 0 0 0 0 0 0 0 0 0 0 0 0 0 0 0 0 0 0 0 0
0 0 0 0 0 0 0 0 0 0 0 0 0 0 0 0 0 0 0 0 0 0 0 0 0 0 0 0 0 0 0 0 0 0 0 0 0 0 0 0 0 0 0
0 0 0 0 0 0 0 0 0 0 0 0 0 0 0 0 0 0 0 0 0 0 0 0 0 0 0 0 0 0 0 0 0 0 0 0 0 0 0 0 0 0 0
0 0 0 0 0 0 0 0 0 0 0 0 0 0 0 0 0 0 0 0 0 0 0 0 0 0 0 0 0 0 0 0 0 0 0 0 0 0 0 0 0 0 0
0 0 0 0 0 0 0 0 0 0 0 0 0 0 0 0 0 0 0 0 0 0 0 0 0 0 0 0 0 0 0 0 0 0 0 0 0 0 0 0 0 0 0
0 0 0 0 0 0 0 0 0 0 0 0 0 0 0 0 0 0 0 0 0 0 0 0 0 0 0 0 0 0 0 0 0 0 0 0 0 0 0 0 0 0 0
0 0 0 0 0 0 0 0 0 0 0 0 0 0 0 0 0 0 0 0 0 0 0 0 0 0 0 0 0 0 0 0 0 0 0 0 0 0 0 0 0 0 0
0 0 0 0 0 0 0 0 0 0 0 0 0 0 0 0 0 0 0 0 0 0 0 0 0 0 0 0 0 0 0 0 0 0 0 0 0 0 0 0 0 0 0
0 0 0 0 0 0 0 0 0 0 0 0 0 0 0 0 0 0 0 0 0 0 0 0 0 0 0 0 0 0 0 0 0 0 0 0 0 0 0 0 0 0 0
0 0 0 0 0 0 0 0 0 0 0 0 0 0 0 0 0 0 0 0 0 0 0 0 0 0 0 0 0 0 0 0 0 0 0 0 0 0 0 0 0 0 0
Wind_Speed_500mb
102 103 104 100 97 94 94 98 97 92 91 87 83 84 81 77 69 59 51 45 41 39 38 36 34 32 30 30 29 28 26 29 31 33 34 33 33 26 22 22 23 22 21
98 100 103 105 101 103 103 105 106 99 96 92 89 89 86 80 72 62 52 47 42 43 42 40 37 34 32 32 30 30 31 31 35 37 38 36 28 26 21 18 17 17 17
92 101 104 106 107 109 111 110 108 103 96 94 92 90 88 83 75 64 56 50 48 44 43 42 39 36 34 34 32 29 30 31 29 28 29 26 25 22 17 15 15 14 15
84 90 108 107 111 115 121 121 116 110 98 99 97 93 91 84 76 66 59 55 54 50 45 43 40 39 39 37 33 26 19 20 24 25 24 23 19 16 14 13 13 13 13
88 84 98 106 115 119 126 124 123 114 108 106 103 100 96 87 76 69 63 59 57 51 47 45 41 41 38 40 36 29 24 20 16 21 24 23 19 17 15 14 14 13 12
91 91 92 108 111 117 119 127 119 112 107 119 113 107 95 86 77 70 65 63 60 56 50 46 39 40 39 38 41 29 30 26 21 18 22 22 19 17 16 15 15 14 14
92 89 98 97 111 115 118 122 123 128 119 117 122 92 89 83 75 69 67 65 63 59 54 50 46 43 45 45 42 44 33 30 27 21 20 18 19 18 16 14 14 14 15
92 88 101 104 118 117 119 127 124 129 132 131 96 98 55 59 66 68 67 65 63 60 57 53 50 48 47 49 49 49 44 40 32 28 23 16 18 16 13 13 13 15 16
93 96 96 105 102 108 115 131 134 133 135 122 111 73 38 27 68 68 65 62 61 60 58 55 52 49 47 47 48 53 42 40 34 30 20 14 15 12 12 14 15 16 16
96 93 96 88 102 110 108 106 112 119 118 126 121 76 73 63 42 41 63 64 63 62 60 58 55 50 48 47 49 53 48 46 40 32 31 15 16 15 16 17 17 18 19
98 92 88 88 87 87 103 101 124 138 132 142 136 117 79 62 62 52 60 68 66 66 63 60 57 53 51 48 48 48 48 47 45 42 37 26 19 21 21 22 22 23 25
96 94 86 82 96 76 85 87 99 112 122 138 132 119 96 85 76 62 52 73 72 71 70 65 62 59 53 52 49 46 45 45 45 46 39 33 25 25 27 26 26 28 30
102 97 90 94 83 76 88 71 80 91 98 121 120 110 91 74 61 61 83 84 71 70 68 72 66 60 56 53 49 46 43 41 40 39 36 33 29 28 29 30 30 31 33
95 102 85 99 78 66 84 91 91 86 104 103 105 104 95 80 76 87 81 73 57 63 68 69 70 63 58 56 49 46 44 41 37 36 34 30 30 28 29 31 32 31 32
104 100 83 87 86 73 76 99 99 89 114 111 110 106 97 83 62 69 64 64 63 45 57 59 55 70 60 55 50 48 45 41 38 36 31 30 30 29 29 29 29 31 32
95 97 94 84 78 69 80 97 95 115 121 116 109 106 106 99 63 63 56 52 45 47 47 51 51 55 61 55 52 49 46 43 40 36 32 32 31 29 27 28 30 32 32
101 91 91 79 55 59 77 91 98 97 98 104 117 113 94 98 75 49 37 38 42 45 48 47 48 40 51 54 53 52 50 46 42 37 34 33 31 27 28 31 33 34 33
82 76 89 61 44 33 48 55 75 55 66 91 97 103 98 98 86 74 59 48 41 40 45 53 50 50 49 49 50 50 49 46 42 38 35 34 32 30 32 33 35 34 33
54 62 61 57 61 51 33 19 26 44 52 45 66 97 112 111 98 88 69 62 50 46 45 48 55 56 52 50 51 50 48 47 43 40 37 36 34 34 36 36 35 34 35
57 61 69 70 56 47 50 56 51 36 50 53 52 77 91 103 104 104 82 77 65 54 52 53 52 54 56 55 53 51 51 48 44 40 41 38 37 38 39 38 36 37 38
76 71 73 70 66 70 58 58 55 39 36 39 46 46 49 57 92 105 101 92 83 70 61 60 59 56 58 56 57 55 52 48 46 45 44 44 43 42 39 38 37 37 40
55 63 75 74 60 60 66 53 58 51 50 57 57 57 68 66 61 56 83 84 86 74 75 70 65 63 56 57 54 52 53 50 49 49 49 48 47 44 40 39 38 39 43
62 51 48 46 42 40 39 47 46 50 52 51 58 51 60 55 47 49 52 58 61 67 71 71 73 64 56 46 51 56 52 50 50 44 39 49 46 43 39 39 42 43 40
48 47 44 42 37 35 32 32 33 29 31 46 50 49 48 53 60 53 53 50 50 55 60 65 73 58 49 46 45 43 42 45 46 48 49 45 41 38 39 40 43 43 39
46 44 42 36 28 26 23 24 26 29 36 41 41 46 46 48 49 53 60 57 55 51 52 51 54 54 53 52 51 49 54 55 54 55 52 47 42 41 41 41 36 37 32
38 33 32 29 23 22 22 26 26 28 28 37 41 41 45 49 52 51 57 60 62 58 55 56 52 51 51 54 59 61 58 61 59 54 53 52 48 41 28 36 35 33 28
Wind_Direction_500mb
227 225 222 221 218 217 214 212 212 211 204 201 201 199 199 200 200 201 206 207 208 207 205 203 202 199 199 207 207 204 205 209 210 219 225 229 234 236 217 216 225 234 241
227 226 224 222 219 219 216 215 216 214 207 203 201 202 201 200 202 204 208 208 209 206 201 201 202 201 199 208 209 198 199 211 216 219 225 228 221 214 219 221 229 238 247
230 227 224 222 221 221 220 219 218 217 209 203 203 202 202 202 203 205 208 210 205 205 205 204 200 200 200 204 205 204 210 217 215 213 207 207 211 215 220 228 236 246 252
236 225 226 226 224 222 222 219 218 214 211 203 202 202 206 204 203 205 207 207 202 200 202 204 201 200 200 193 189 203 219 216 202 206 201 204 209 218 227 235 243 250 259
235 233 230 225 226 223 226 224 218 216 208 202 200 201 202 203 204 205 207 204 203 200 200 201 203 205 201 186 196 212 223 244 217 201 196 198 206 215 225 234 242 250 259
236 233 224 225 221 224 223 224 221 215 211 202 197 196 194 197 201 204 204 201 201 203 203 201 192 194 197 188 194 207 218 248 255 217 198 206 211 218 228 237 246 256 266
235 231 228 222 226 234 229 227 221 219 206 200 189 185 187 193 196 199 200 201 201 201 201 202 200 199 197 198 195 190 212 231 241 252 234 214 219 224 230 238 252 266 278
231 229 231 230 227 229 232 225 223 210 205 198 183 177 163 179 192 195 198 200 200 201 201 203 205 203 203 201 199 201 200 221 230 233 253 230 222 222 236 256 269 280 286
230 227 229 228 228 233 229 220 218 212 200 197 190 176 157 178 184 192 196 199 200 201 203 204 206 206 206 206 203 207 205 209 223 239 254 214 226 236 262 278 286 290 293
226 225 223 226 229 228 223 223 228 217 203 209 191 179 180 189 177 176 197 201 202 204 205 205 207 209 209 209 210 211 211 217 224 232 248 251 235 255 274 283 290 291 289
218 224 220 217 221 230 228 231 220 212 214 201 203 191 184 182 188 179 191 202 206 208 210 209 209 210 212 211 213 215 216 219 223 230 243 256 258 274 285 290 292 292 291
219 218 217 219 224 230 232 226 229 210 214 204 198 185 185 177 182 194 196 201 206 210 210 212 212 210 212 214 215 216 218 220 222 229 238 250 261 272 278 284 288 289 290
208 216 216 214 216 225 220 212 216 214 207 201 193 186 189 181 189 206 214 205 199 208 210 213 213 213 213 215 216 219 218 218 222 228 234 244 257 268 277 281 283 286 289
212 206 206 212 218 215 212 205 200 210 202 200 194 192 187 184 198 213 216 212 196 200 206 212 213 215 214 215 215 218 216 217 222 228 236 244 255 264 272 278 282 287 289
206 209 204 208 206 211 217 215 206 219 201 200 197 194 190 192 212 211 221 216 209 180 201 210 213 216 214 216 216 216 217 221 224 230 235 246 256 265 270 274 281 285 288
208 202 203 205 204 205 206 211 212 211 204 200 202 199 199 198 210 203 199 196 205 207 180 189 193 203 207 210 211 215 218 222 228 232 237 245 254 259 267 276 280 284 286
204 200 196 196 192 204 210 214 216 206 210 209 204 202 202 208 214 209 199 202 206 206 204 190 194 193 199 205 210 216 219 224 229 233 239 246 252 259 267 274 279 283 283
200 182 184 162 160 143 201 213 215 218 224 216 212 203 198 213 221 221 219 232 231 216 212 200 199 201 201 205 212 219 222 226 230 232 237 245 252 259 267 272 277 280 283
179 185 186 177 176 178 168 166 204 221 209 214 223 206 200 207 220 224 223 229 230 227 221 216 201 200 202 204 208 213 218 223 226 231 239 246 254 261 267 273 277 280 281
180 184 176 168 170 172 186 190 198 199 212 211 222 213 206 210 217 218 226 226 223 224 222 219 216 210 209 209 212 218 222 226 230 234 241 248 255 261 267 273 276 278 282
184 176 177 168 165 169 170 180 183 170 184 188 201 192 212 218 221 220 225 221 228 224 222 219 219 213 213 213 217 220 224 228 232 236 242 247 250 256 262 268 271 274 283
151 170 175 173 176 177 182 187 190 187 183 185 195 209 214 210 221 220 215 220 224 220 220 220 221 221 221 223 224 226 228 227 231 236 241 246 250 256 263 267 270 276 285
150 146 148 152 156 171 190 203 218 219 205 199 205 208 205 214 203 210 205 215 223 226 229 230 226 226 226 228 231 227 228 233 237 240 242 245 248 254 257 260 268 279 282
132 136 133 134 148 162 171 173 180 194 207 211 206 202 203 208 209 214 202 203 209 220 221 226 223 228 235 236 237 238 240 235 236 238 239 239 241 245 254 264 273 275 277
102 111 117 140 152 169 178 189 202 204 209 222 212 209 208 202 200 206 210 204 209 218 219 218 218 219 220 223 225 227 226 224 228 232 234 237 240 247 259 263 262 266 271
107 106 113 119 138 147 161 187 193 202 200 207 207 220 225 227 217 216 213 208 208 204 209 206 207 212 220 226 228 228 231 236 238 240 237 235 244 249 249 251 248 252 256
Wind_Speed_850mb
102 103 104 100 97 94 94 98 97 92 91 87 83 84 81 77 69 59 51 45 41 39 38 36 34 32 30 30 29 28 26 29 31 33 34 33 33 26 22 22 23 22 21
98 100 103 105 101 103 103 105 106 99 96 92 89 89 86 80 72 62 52 47 42 43 42 40 37 34 32 32 30 30 31 31 35 37 38 36 28 26 21 18 17 17 17
92 101 104 106 107 109 111 110 108 103 96 94 92 90 88 83 75 64 56 50 48 44 43 42 39 36 34 34 32 29 30 31 29 28 29 26 25 22 17 15 15 14 15
84 90 108 107 111 115 121 121 116 110 98 99 97 93 91 84 76 66 59 55 54 50 45 43 40 39 39 37 33 26 19 20 24 25 24 23 19 16 14 13 13 13 13
88 84 98 106 115 119 126 124 123 114 108 106 103 100 96 87 76 69 63 59 57 51 47 45 41 41 38 40 36 29 24 20 16 21 24 23 19 17 15 14 14 13 12
91 91 92 108 111 117 119 127 119 112 107 119 113 107 95 86 77 70 65 63 60 56 50 46 39 40 39 38 41 29 30 26 21 18 22 22 19 17 16 15 15 14 14
92 89 98 97 111 115 118 122 123 128 119 117 122 92 89 83 75 69 67 65 63 59 54 50 46 43 45 45 42 44 33 30 27 21 20 18 19 18 16 14 14 14 15
92 88 101 104 118 117 119 127 124 129 132 131 96 98 55 59 66 68 67 65 63 60 57 53 50 48 47 49 49 49 44 40 32 28 23 16 18 16 13 13 13 15 16
93 96 96 105 102 108 115 131 134 133 135 122 111 73 38 27 68 68 65 62 61 60 58 55 52 49 47 47 48 53 42 40 34 30 20 14 15 12 12 14 15 16 16
96 93 96 88 102 110 108 106 112 119 118 126 121 76 73 63 42 41 63 64 63 62 60 58 55 50 48 47 49 53 48 46 40 32 31 15 16 15 16 17 17 18 19
98 92 88 88 87 87 103 101 124 138 132 142 136 117 79 62 62 52 60 68 66 66 63 60 57 53 51 48 48 48 48 47 45 42 37 26 19 21 21 22 22 23 25
96 94 86 82 96 76 85 87 99 112 122 138 132 119 96 85 76 62 52 73 72 71 70 65 62 59 53 52 49 46 45 45 45 46 39 33 25 25 27 26 26 28 30
102 97 90 94 83 76 88 71 80 91 98 121 120 110 91 74 61 61 83 84 71 70 68 72 66 60 56 53 49 46 43 41 40 39 36 33 29 28 29 30 30 31 33
95 102 85 99 78 66 84 91 91 86 104 103 105 104 95 80 76 87 81 73 57 63 68 69 70 63 58 56 49 46 44 41 37 36 34 30 30 28 29 31 32 31 32
104 100 83 87 86 73 76 99 99 89 114 111 110 106 97 83 62 69 64 64 63 45 57 59 55 70 60 55 50 48 45 41 38 36 31 30 30 29 29 29 29 31 32
95 97 94 84 78 69 80 97 95 115 121 116 109 106 106 99 63 63 56 52 45 47 47 51 51 55 61 55 52 49 46 43 40 36 32 32 31 29 27 28 30 32 32
101 91 91 79 55 59 77 91 98 97 98 104 117 113 94 98 75 49 37 38 42 45 48 47 48 40 51 54 53 52 50 46 42 37 34 33 31 27 28 31 33 34 33
82 76 89 61 44 33 48 55 75 55 66 91 97 103 98 98 86 74 59 48 41 40 45 53 50 50 49 49 50 50 49 46 42 38 35 34 32 30 32 33 35 34 33
54 62 61 57 61 51 33 19 26 44 52 45 66 97 112 111 98 88 69 62 50 46 45 48 55 56 52 50 51 50 48 47 43 40 37 36 34 34 36 36 35 34 35
57 61 69 70 56 47 50 56 51 36 50 53 52 77 91 103 104 104 82 77 65 54 52 53 52 54 56 55 53 51 51 48 44 40 41 38 37 38 39 38 36 37 38
76 71 73 70 66 70 58 58 55 39 36 39 46 46 49 57 92 105 101 92 83 70 61 60 59 56 58 56 57 55 52 48 46 45 44 44 43 42 39 38 37 37 40
55 63 75 74 60 60 66 53 58 51 50 57 57 57 68 66 61 56 83 84 86 74 75 70 65 63 56 57 54 52 53 50 49 49 49 48 47 44 40 39 38 39 43
62 51 48 46 42 40 39 47 46 50 52 51 58 51 60 55 47 49 52 58 61 67 71 71 73 64 56 46 51 56 52 50 50 44 39 49 46 43 39 39 42 43 40
48 47 44 42 37 35 32 32 33 29 31 46 50 49 48 53 60 53 53 50 50 55 60 65 73 58 49 46 45 43 42 45 46 48 49 45 41 38 39 40 43 43 39
46 44 42 36 28 26 23 24 26 29 36 41 41 46 46 48 49 53 60 57 55 51 52 51 54 54 53 52 51 49 54 55 54 55 52 47 42 41 41 41 36 37 32
38 33 32 29 23 22 22 26 26 28 28 37 41 41 45 49 52 51 57 60 62 58 55 56 52 51 51 54 59 61 58 61 59 54 53 52 48 41 28 36 35 33 28
Wind_Direction_850mb
227 225 222 221 218 217 214 212 212 211 204 201 201 199 199 200 200 201 206 207 208 207 205 203 202 199 199 207 207 204 205 209 210 219 225 229 234 236 217 216 225 234 241
227 226 224 222 219 219 216 215 216 214 207 203 201 202 201 200 202 204 208 208 209 206 201 201 202 201 199 208 209 198 199 211 216 219 225 228 221 214 219 221 229 238 247
230 227 224 222 221 221 220 219 218 217 209 203 203 202 202 202 203 205 208 210 205 205 205 204 200 200 200 204 205 204 210 217 215 213 207 207 211 215 220 228 236 246 252
236 225 226 226 224 222 222 219 218 214 211 203 202 202 206 204 203 205 207 207 202 200 202 204 201 200 200 193 189 203 219 216 202 206 201 204 209 218 227 235 243 250 259
235 233 230 225 226 223 226 224 218 216 208 202 200 201 202 203 204 205 207 204 203 200 200 201 203 205 201 186 196 212 223 244 217 201 196 198 206 215 225 234 242 250 259
236 233 224 225 221 224 223 224 221 215 211 202 197 196 194 197 201 204 204 201 201 203 203 201 192 194 197 188 194 207 218 248 255 217 198 206 211 218 228 237 246 256 266
235 231 228 222 226 234 229 227 221 219 206 200 189 185 187 193 196 199 200 201 201 201 201 202 200 199 197 198 195 190 212 231 241 252 234 214 219 224 230 238 252 266 278
231 229 231 230 227 229 232 225 223 210 205 198 183 177 163 179 192 195 198 200 200 201 201 203 205 203 203 201 199 201 200 221 230 233 253 230 222 222 236 256 269 280 286
230 227 229 228 228 233 229 220 218 212 200 197 190 176 157 178 184 192 196 199 200 201 203 204 206 206 206 206 203 207 205 209 223 239 254 214 226 236 262 278 286 290 293
226 225 223 226 229 228 223 223 228 217 203 209 191 179 180 189 177 176 197 201 202 204 205 205 207 209 209 209 210 211 211 217 224 232 248 251 235 255 274 283 290 291 289
218 224 220 217 221 230 228 231 220 212 214 201 203 191 184 182 188 179 191 202 206 208 210 209 209 210 212 211 213 215 216 219 223 230 243 256 258 274 285 290 292 292 291
219 218 217 219 224 230 232 226 229 210 214 204 198 185 185 177 182 194 196 201 206 210 210 212 212 210 212 214 215 216 218 220 222 229 238 250 261 272 278 284 288 289 290
208 216 216 214 216 225 220 212 216 214 207 201 193 186 189 181 189 206 214 205 199 208 210 213 213 213 213 215 216 219 218 218 222 228 234 244 257 268 277 281 283 286 289
212 206 206 212 218 215 212 205 200 210 202 200 194 192 187 184 198 213 216 212 196 200 206 212 213 215 214 215 215 218 216 217 222 228 236 244 255 264 272 278 282 287 289
206 209 204 208 206 211 217 215 206 219 201 200 197 194 190 192 212 211 221 216 209 180 201 210 213 216 214 216 216 216 217 221 224 230 235 246 256 265 270 274 281 285 288
208 202 203 205 204 205 206 211 212 211 204 200 202 199 199 198 210 203 199 196 205 207 180 189 193 203 207 210 211 215 218 222 228 232 237 245 254 259 267 276 280 284 286
204 200 196 196 192 204 210 214 216 206 210 209 204 202 202 208 214 209 199 202 206 206 204 190 194 193 199 205 210 216 219 224 229 233 239 246 252 259 267 274 279 283 283
200 182 184 162 160 143 201 213 215 218 224 216 212 203 198 213 221 221 219 232 231 216 212 200 199 201 201 205 212 219 222 226 230 232 237 245 252 259 267 272 277 280 283
179 185 186 177 176 178 168 166 204 221 209 214 223 206 200 207 220 224 223 229 230 227 221 216 201 200 202 204 208 213 218 223 226 231 239 246 254 261 267 273 277 280 281
180 184 176 168 170 172 186 190 198 199 212 211 222 213 206 210 217 218 226 226 223 224 222 219 216 210 209 209 212 218 222 226 230 234 241 248 255 261 267 273 276 278 282
184 176 177 168 165 169 170 180 183 170 184 188 201 192 212 218 221 220 225 221 228 224 222 219 219 213 213 213 217 220 224 228 232 236 242 247 250 256 262 268 271 274 283
151 170 175 173 176 177 182 187 190 187 183 185 195 209 214 210 221 220 215 220 224 220 220 220 221 221 221 223 224 226 228 227 231 236 241 246 250 256 263 267 270 276 285
150 146 148 152 156 171 190 203 218 219 205 199 205 208 205 214 203 210 205 215 223 226 229 230 226 226 226 228 231 227 228 233 237 240 242 245 248 254 257 260 268 279 282
132 136 133 134 148 162 171 173 180 194 207 211 206 202 203 208 209 214 202 203 209 220 221 226 223 228 235 236 237 238 240 235 236 238 239 239 241 245 254 264 273 275 277
102 111 117 140 152 169 178 189 202 204 209 222 212 209 208 202 200 206 210 204 209 218 219 218 218 219 220 223 225 227 226 224 228 232 234 237 240 247 259 263 262 266 271
107 106 113 119 138 147 161 187 193 202 200 207 207 220 225 227 217 216 213 208 208 204 209 206 207 212 220 226 228 228 231 236 238 240 237 235 244 249 249 251 248 252 256